This is the latest recevied weather packets stored in our database for station/object KE5BM-13. If no packets are shown the sender has not sent any weather packets the latest 10 day(s).
| Time | Temp. | Humidity | Pressure | Rain* | Wind** | Luminosity | Snow |
|---|---|---|---|---|---|---|---|
| 1777402307 | 10.56° C | 66% | 1020 hPa | 0 mm | - | - | - |
| 1777402003 | 10.56° C | 69% | 1020 hPa | 0 mm | - | - | - |
| 1777401699 | 10.56° C | 66% | 1020.2 hPa | 0 mm | - | - | - |
| 1777401400 | 10.56° C | 66% | 1020.1 hPa | 0 mm | - | - | - |
| 1777401099 | 11.11° C | 63% | 1020.1 hPa | 0 mm | - | - | - |
| 1777400803 | 10.56° C | 66% | 1020.1 hPa | 0 mm | - | - | - |
| 1777400497 | 10.56° C | 65% | 1020 hPa | 0 mm | - | - | - |
| 1777400199 | 10.56° C | 63% | 1020 hPa | 0 mm | - | - | - |
| 1777399898 | 10.56° C | 64% | 1020 hPa | 0 mm | - | - | - |
| 1777399595 | 11.11° C | 64% | 1020.1 hPa | 0 mm | - | - | - |
| 1777399287 | 11.11° C | 62% | 1020 hPa | 0 mm | - | - | - |
| 1777398987 | 11.11° C | 61% | 1020 hPa | 0 mm | - | - | - |
| 1777398688 | 11.11° C | 63% | 1020 hPa | 0 mm | - | - | - |
| 1777398385 | 11.11° C | 61% | 1020 hPa | 0 mm | - | - | - |
| 1777398085 | 11.11° C | 63% | 1020.1 hPa | 0 mm | - | - | - |
| 1777397784 | 10.56° C | 66% | 1020.2 hPa | 0 mm | - | - | - |
| 1777397484 | 11.11° C | 65% | 1020.1 hPa | 0 mm | - | - | - |
| 1777397182 | 11.67° C | 70% | 1020.2 hPa | 0 mm | - | - | - |
| 1777396881 | 11.11° C | 71% | 1020.3 hPa | 0 mm | - | - | - |
| 1777396582 | 11.11° C | 72% | 1020.2 hPa | 0 mm | - | - | - |
| 1777396280 | 11.11° C | 71% | 1020.3 hPa | 0 mm | - | - | - |
| 1777395980 | 11.67° C | 73% | 1020.3 hPa | 0 mm | - | - | - |
| 1777395679 | 11.67° C | 73% | 1020.3 hPa | 0 mm | - | - | - |
| 1777395379 | 11.67° C | 73% | 1020.2 hPa | 0 mm | - | - | - |
| 1777395080 | 11.67° C | 75% | 1020.3 hPa | 0 mm | - | - | - |
* Rain latest hour (hover to see other rain measurements)
** Current wind speed in m/s (hover to see current wind gust speed)